Location: Gro�sch�nbrunn
(49.5760°N, 11.8868°E)
Time: 09:01:57
(UTC+00:00)

N. Korean satellite - Pass Details

Date: 30 November 2020
Orbit: 453 x 502 km, 97.2° (Epoch: 16 January)

Event Time Altitude Azimuth Distance (km) Brightness Sun altitude
Rises 04:33:47 0° 16° (NNE) 2,556 10.3 -20.7°
Reaches altitude 10° 04:35:53 10° 21° (NNE) 1,679 9.4 -20.4°
Maximum altitude 04:39:26 55° 100° (E) 598 7.3 -19.8°
Drops below altitude 10° 04:43:01 10° 179° (S) 1,689 9.4 -19.2°
Sets 04:45:07 0° 184° (S) 2,573 10.3 -18.9°
